Home > Weather > Sendai > Past weeks

Flag for Japan Past Weather in Sendai, Japan — Yesterday and Last 2 Weeks

Now
63 °F

Passing clouds.


Feels Like: 63 °F
Forecast: 59 / 73 °F
Wind: 3 mph from East

Location: Sendai Airport

Current Time: May 25, 2016 at 12:44:42 AM

Latest Report: May 24, 2016 at 9:00 PM


Visibility: N/A

Pressure: 29.92 "Hg

Humidity: 88%

Dew Point: 59 °F

Location of SendaiLocation

Past Weather in Sendai — Graph

°F

Sendai Temperature Yesterday

Maximum temperature yesterday: 75 °F (at 10:00 AM)
Minimum temperature yesterday: 61 °F (at 6:00 AM)
Average temperature yesterday: 67 °F

High & Low Weather Summary for the Past Weeks

 TemperatureHumidityPressure
High82 °F (May 23, 1:00 PM)100% (May 10, 3:00 PM)30.33 "Hg (May 10, 3:00 PM)
Low50 °F (May 15, 6:00 AM)25% (May 23, 1:00 PM)29.47 "Hg (May 11, 10:48 AM)
Average62 °F72%29.99 "Hg
* Reported May 9 9:00 PM — May 24 9:00 PM, Sendai, Weather by CustomWeather, © 2016

Note: Actual official high and low records may vary slightly from our data, if they occured in-between our weather recording intervals... More about our weather records

Advertising

Sendai Weather History for the Previous 24 Hours

Scroll right to see more
 ConditionsComfort  
Time TempWeatherWind HumidityBarometerVisibility
9:00 PM
Tue, May 24
63 °FPassing clouds.3 mph88%29.92 "HgN/A
8:00 PM63 °FPassing clouds.6 mph88%29.92 "HgN/A
7:00 PM63 °FPartly cloudy.3 mph88%29.92 "HgN/A
6:00 PM64 °FPartly sunny.5 mph83%29.89 "HgN/A
5:00 PM66 °FPartly sunny.7 mph83%29.89 "HgN/A
4:00 PM66 °FPartly sunny.8 mph83%29.92 "HgN/A
3:00 PM68 °FBroken clouds.8 mph73%29.92 "HgN/A
2:00 PM68 °FPartly sunny.10 mph69%29.92 "HgN/A
1:00 PM70 °FSunny.9 mph64%29.92 "Hg10 mi
12:00 PM70 °FSunny.10 mph69%29.95 "Hg10 mi
11:00 AM70 °FSunny.9 mph57%29.95 "Hg10 mi
10:00 AM75 °FPassing clouds.3 mph36%29.95 "HgN/A
9:00 AM73 °FSunny.5 mph44%29.95 "Hg10 mi
8:00 AM70 °FPassing clouds.5 mph46%29.95 "HgN/A
7:00 AM66 °FSunny.1 mph52%29.95 "Hg10 mi
6:00 AM61 °FSunny.5 mph77%29.95 "Hg10 mi
Weather by CustomWeather, © 2016

See weather overviewHow to use our weather pages